Orbital Elements at Epoch 2459200.5 (2020-Dec-17.0) TDB
Reference: JPL 19 (heliocentric ecliptic J2000)
Element | Value | Uncertainty (1-sigma) | Units |
e | .07824021138602719 | 7.1105e-08 | |
a | 1.901770645695391 | 5.7443e-09 | au |
q | 1.752975708368442 | 1.374e-07 | au |
i | 23.94261592004056 | 7.0296e-06 | deg |
node | 175.1966322715073 | 9.3441e-06 | deg |
peri | 327.1986268544807 | 3.1949e-05 | deg |
M | 27.60072294158887 | 2.9641e-05 | deg |
tp | 2459127.056461451939 (2020-Oct-04.55646145) | 7.8846e-05 | TDB |
period | 957.9341067716202 2.62 | 4.3402e-06 1.188e-08 | d yr |
n | .3758087299065416 | 1.7027e-09 | deg/d |
Q | 2.05056558302234 | 6.1937e-09 | au |
|
| | Orbit Determination Parameters
Additional Information
|